Regional Weather Roundup
Issued by NWS

Home | Current Version | Previous Version | Graphics & Text | Print | Product List | Glossary Off
Versions: 1 2 3 4 5 6 7 8 9 10 11 12 13 14 15 16 17 18 19 20 21 22 23 24 25 26 27 28 29 30 31 32 33 34 35 36 37 38 39 40 41 42 43 44 45 46 47 48 49 50

000
ASUS45 KBOU 301307
RWRCO

WEATHER ROUNDUP FOR COLORADO
NATIONAL WEATHER SERVICE DENVER/BOULDER CO
700 AM MDT TUE SEP 30 2014

NOTE: "FAIR" INDICATES FEW OR NO CLOUDS BELOW 12000 FEET WITH NO
SIGNIFICANT WEATHER AND/OR OBSTRUCTIONS TO VISIBILITY.

COZ001>005-013-030-031-301400-
...NORTHWEST COLORADO...

CITY           SKY/WX    TMP DP  RH WIND       PRES   REMARKS
CRAIG          MOCLDY    43  37  79 W7        29.99S
HAYDEN         MOCLDY    43  36  75 W7        29.99S
MEEKER         PTCLDY    39  36  89 NE7       30.02
MOUNT WERNER   NOT AVBL
STEAMBOAT SPGS CLOUDY    41  39  91 E3        30.00S
WALDEN         CLOUDY    37  34  87 S15G21    29.98S
$$

COZ006>008-011-301400-
...WEST CENTRAL VALLEYS...

CITY           SKY/WX    TMP DP  RH WIND       PRES   REMARKS
GRAND JUNCTION CLOUDY    46  42  86 SE12      29.99F
MONTROSE       CLOUDY    41  40  96 SE3       30.05F
EAGLE          MOCLDY    43  43 100 CALM      30.06S
RIFLE          CLOUDY    42  40  92 SW3       30.02F
DELTA          LGT RAIN  44  42  91 E3        30.04F
NUCLA          MOCLDY    43  37  81 NE3       30.07F
$$

COZ017>023-064>068-301400-
...SOUTHWEST COLORADO...

CITY           SKY/WX    TMP DP  RH WIND       PRES   REMARKS
DURANGO        PTCLDY    35  34  96 E7        30.09F WCI  29
CORTEZ         CLEAR     38  36  92 E3        30.06F
PAGOSA SPRINGS PTCLDY    33  33 100 CALM      30.13S
TELLURIDE      CLOUDY   N/A N/A N/A CALM      30.14F
WOLF CREEK PAS PTCLDY    23  23 100 SW20      30.20F WCI   8
$$

COZ009-010-012-014-032>034-037-058>063-301400-
...CENTRAL COLORADO...

CITY           SKY/WX    TMP DP  RH WIND       PRES   REMARKS
ASPEN          CLOUDY    37  35  92 SW6       30.07S
BUENA VISTA    PTCLDY    43  26  51 SW6       30.03R
COPPER MTN     FOG       30  27  86 W13G22    30.15S VSB 1/4 WCI  20
BERTHOUD PASS  CLOUDY    21  19  93 NW37G49   30.06R WCI   1
COTTONWOOD PAS PTCLDY    39  23  52 NW8G29    30.07S
GUNNISON       CLEAR     34  30  86 CALM      30.11S
KREMMLING      CLOUDY    41  34  75 W9        30.04S
LEADVILLE      CLOUDY    35  25  66 MISG      30.10R
SALIDA         PTCLDY    46  30  52 SW14G23   30.09S
SUNLIGHT       CLOUDY    34  32  93 CALM      30.15S FOG
WILKERSON PASS NOT AVBL
$$

COZ069>075-301400-
...SAN LUIS VALLEY/SANGRE DE CRISTO MOUNTAINS...

CITY           SKY/WX    TMP DP  RH WIND       PRES   REMARKS
ALAMOSA        CLEAR     32  28  85 SW6       30.09R WCI  26
LA VETA PASS   CLEAR     30  27  86 SW12G21   30.06F WCI  21
SAGUACHE       PTCLDY    34  30  86 E6        30.09S WCI  29
$$

COZ035-036-038>040-301400-
...NORTHERN COLORADO FRONT RANGE...

CITY           SKY/WX    TMP DP  RH WIND       PRES   REMARKS
DENVER INTL AP PTCLDY    42  37  82 S8        29.84R
DMNS CITY PARK   N/A     44  40  87 S6        29.84S
AURORA         PTCLDY    44  36  75 S12       29.86S
FRONT RANGE AP CLEAR     43  39  87 S6        29.86S
ERIE MUNI ARPT CLEAR     40  40  97 CALM      29.82R
BOULDER MUN AP CLEAR     45  41  87 SW5       29.82R
CENTENNIAL     PTCLDY    43  35  73 S8        29.87R
BROOMFIELD     PTCLDY    55  32  41 W18G26    29.83S
FORT COLLINS   PTCLDY    43  41  93 N8        29.83S
LONGMONT       PTCLDY    46  43  90 NW5       29.83S FOG
$$

COZ041-046-047-076>085-087-088-301400-
...PIKES PEAK/PALMER DIVIDE AND SOUTHERN FOOTHILLS...

CITY           SKY/WX    TMP DP  RH WIND       PRES   REMARKS
COLO. SPRINGS  PTCLDY    43  35  73 NE7       29.92S
A. F. ACADEMY  CLEAR     41  32  70 W8        29.93R
ELLICOTT       NOT AVBL
FALCON         CLEAR     40  31  68 SW6       29.94S
FORT CARSON    CLEAR     39  36  87 N5        29.90S
LIMON          CLEAR     36  35  96 N3        29.90R
MONUMENT HILL  CLEAR     41  30  65 SW9       29.91S
TRINIDAD       CLEAR     43  32  65 SW12      29.94R
$$

COZ042>045-048>051-090-091-301400-
...NORTHEAST COLORADO...

CITY           SKY/WX    TMP DP  RH WIND       PRES   REMARKS
GREELEY ARPT   PTCLDY    45  36  70 E3        29.83R
AKRON          MOCLDY    48  43  82 S8        29.84R
BURLINGTON     CLEAR     44  41  89 SW7       29.87S
WRAY           PTCLDY    49  47  92 S9        29.82F
STERLING       MOCLDY    50  46  87 SW7       29.80R
HOLYOKE        PTCLDY    52  46  82 S9        29.80F
FORT MORGAN    MOCLDY    47  42  81 CALM      29.83S
$$

COZ086-089-092>099-301400-
...SOUTHEAST COLORADO...

CITY           SKY/WX    TMP DP  RH WIND       PRES   REMARKS
PUEBLO         CLEAR     41  38  89 NW5       29.90R
LA JUNTA       CLEAR     45  42  89 E6        29.88S
LAMAR          CLEAR     43  42  97 W3        29.86R
SPRINGFIELD      N/A     41  41 100 NW7       29.88S
$$


USA.gov is the U.S. government's official web portal to all federal, state and local government web resources and services.